Volver al catálogo

STARLINK-30510

ActivoComunicacionesVLEO
NORAD 57981·PAYLOAD·🇺🇸 United States

Lanzado Sep 30, 2023 desde Cape Canaveral Space Force Station

Loading…

Próximos Pases (próximas 24 horas)

TLE

ActualizadoSource: CelesTrak SupGP

Época: Sep 15, 2026, 02:25 UTC

1 57981C 23151T   26258.10118056 -.00055652  00000+0 -20160-2 0  2580
2 57981  43.0039   4.2200 0001928 259.7285  92.0138 15.27601111    16

Sigue STARLINK-30510 en tiempo real con AllMySat

Download on the App Store